STARLINK-33558

Satellite information

Favourite Embed

Satellite Type and Status

PAYLOADIN ORBIT

Key statistics

Satellite STARLINK-33558 at a glance.

Uptime

18

Days in orbit

Revolutions

≈ 15.8

Per day

Orbit

LEO

Low Earth Orbit

Inclination

43.0

Latest

Satellite identification and parameters

Extended collection of information and parameters for STARLINK-33558.

Object identification

Identified? True

Debris? False

Object name: STARLINK-33558

International designator: 2025-083K

Object number (NORAD): 63643

Object ID (CCSDS): 63643

Country: UNITED STATES OF AMERICA (US)

Current information (Y/N): Y

RCS size: LARGE

Orbital parameters

Period: 91.192 minutes

Inclination: 42.9981 deg

SMA: 6711.153 km

Apoapsis: 349.919 km

Periapsis: 316.116 km

RAAN: 277.2441 deg

Eccentricy: 0.0025184

Argument of periapsis: 236.7806 deg

Mean anomaly: 123.065 deg

Mean motion: 15.79090713 rev/day

Mean motion (dot): 0.03666385 rev/day2

B* drag term: 0.016742 1/REarth

Two-line elements (TLE)

Creation date: May 11, 2025, 10:21 p.m.

Reference frame: TEME

Reference center: EARTH

Epoch: May 11, 2025, 10:40 a.m. UTC

TLE line 0: 0 STARLINK-33558

TLE line 1: 1 63643U 25083K 25131.44495221 .03666385 00000-0 16742-1 0 9991

TLE line 2: 2 63643 42.9981 277.2441 0025184 236.7806 123.0650 15.79090713 3783

Live tracking on map

Real-time ground track for satellite STARLINK-33558.

In-orbit conjunctions

There are no conjunctions computed for STARLINK-33558, at the moment. Check back to stay up to date, as we update our databases every day.

Go to all conjunctions

Associated space launch

A batch of 28 satellites for the Starlink mega-constellation - SpaceX's project for space-based Internet communication system.

STARLINK-33558 was lifted into orbit during the mission ‘Falcon 9 Block 5 | Starlink Group 6-74’, on board a Falcon 9 space rocket.

The launch took place on April 25, 2025, 1:52 a.m. from Space Launch Complex 40.

For more information about the launch, click the button.

Launch to space Falcon 9 Block 5 | Starlink Group 6-74
Falcon 9 Block 5 | Starlink Group 6-74

Agency: SpaceX

Status: Launch Successful

Launch date: April 25, 2025, 1:52 a.m. UTC

Rocket: Falcon 9

Launch pad: Space Launch Complex 40

Location: Cape Canaveral SFS, FL, USA

...

Latest news about this satellite

News about space launch
Live coverage: SpaceX to launch 28 Starlink satellites on Falcon 9 rocket from Cape Canaveral

The mission will be the 30th Starlink launch of the year for SpaceX. Liftoff from pad 40 at Cape Canaveral Space Force Station is targeted for Thursday, April 24, at 9:52 p.m. EDT (0152 UTC).

News about space launch
Launch Roundup: China to launch crew, Falcon 9 to launch Bandwagon rideshare

This week, China will launch three taikonauts to the Tiangong space station. SpaceX’s Falcon 9… The post Launch Roundup: China to launch crew, Falcon 9 to launch Bandwagon rideshare appeared first on NASASpaceFlight.com.

News about space launch
Weekly Pre Launch Preview: 4 Falcons, ISS Resupply, Recon Satellites, and G60 Constellation Launch

Weekly Pre Launch Preview: 4 Falcons, ISS Resupply, Recon Satellites, and G60 Constellation Launch


Newsletter sign-up

Weekly statistics, charts and insights to help you stay on top of the space industry.